sat.trackr.live / text

‹ back to catalog

SES-17

NORAD 49332 · 2021-095A

PAYLOAD ACTIVE UNKNOWN

§ Identity

Operator
Country
SES
Launch date
2021-10-24
Launch site
FRGUI
Launch vehicle
Mass (kg)
RCS (m²)

Purposes: comms

External: N2YO · Heavens-Above · Gunter

§ Orbital elements

Epoch: 2026-05-24T23:22:38.556768Z

Period
1,436.07 min
Inclination
0.0320°
Eccentricity
0.0000874
Mean motion
1.00273631 rev/d
Perigee alt
35,782.4 km
Apogee alt
35,789.8 km
Semi-major
42,164.2 km
B*
0.0000e+0
RAAN
45.9931°
Arg perigee
30.5387°
Mean anomaly
89.6063°
Rev number
1,762

§ Raw data

SES-171 49332U 21095A   26144.97405737 -.00000275  00000+0  00000+0 0  99902 49332   0.0320  45.9931 0000874  30.5387  89.6063  1.00273631 17625

JSON: /api/v1/satellites/49332 · /tle

For live sub-satellite position, see the globe view (requires WebGL).

§ Visibility from observer

Set your observer location to see the next 7 days of passes ≥ 10°. The values pass through the URL so the page stays shareable.

No JS? Fill the form by hand. The geolocation button needs JavaScript.